N5WAY-13 Weather Reports


time (UTC)temp
C
wind
direction
speed
KPH
gust
KPH
rain 1hr
cm
rain 24hr
cm
rain mn
cm
humidity
%
barometer
mb
20260906232017 34 273 1.6 8.0 0.00 0.00 0.00 18 1016.7
20260906231017 34 208 3.2 6.4 0.00 0.00 0.00 18 1016.8
20260906230018 34 350 3.2 8.0 0.00 0.00 0.00 18 1016.8
20260906225018 35 324 1.6 4.8 0.00 0.00 0.00 18 1016.8
20260906224018 35 234 4.8 12.9 0.00 0.00 0.00 17 1016.8
20260906223015 35 183 4.8 12.9 0.00 0.00 0.00 18 1016.8
20260906222035 34 171 3.2 9.7 0.00 0.00 0.00 18 1016.9
20260906221015 34 12 1.6 4.8 0.00 0.00 0.00 18 1017.1
20260906220016 34 215 4.8 14.5 0.00 0.00 0.00 18 1017.3
20260906215036 35 199 3.2 9.7 0.00 0.00 0.00 18 1017.4
20260906214036 34 201 3.2 9.7 0.00 0.00 0.00 17 1017.6
20260906213016 35 186 4.8 9.7 0.00 0.00 0.00 18 1017.8
20260906212016 35 13 1.6 4.8 0.00 0.00 0.00 16 1017.9
20260906211036 34 147 3.2 11.3 0.00 0.00 0.00 17 1018.1
20260906210016 35 188 4.8 12.9 0.00 0.00 0.00 16 1018.2
20260906205016 34 187 3.2 8.0 0.00 0.00 0.00 16 1018.4
20260906204036 34 68 1.6 6.4 0.00 0.00 0.00 17 1018.5
20260906203017 35 171 3.2 9.7 0.00 0.00 0.00 16 1018.7
20260906202017 34 131 3.2 6.4 0.00 0.00 0.00 17 1018.9
20260906201017 33 26 3.2 6.4 0.00 0.00 0.00 18 1018.9
20260906200017 32 52 1.6 4.8 0.00 0.00 0.00 18 1019.0
20260906195017 32 14 4.8 11.3 0.00 0.00 0.00 18 1019.2
20260906194018 33 14 8.0 12.9 0.00 0.00 0.00 18 1019.2
20260906193017 33 48 3.2 6.4 0.00 0.00 0.00 17 1019.3
20260906192017 33 136 3.2 8.0 0.00 0.00 0.00 17 1019.5
20260906191018 32 291 1.6 6.4 0.00 0.00 0.00 17 1019.7
20260906190038 32 5 3.2 8.0 0.00 0.00 0.00 18 1019.9
20260906185038 32 11 6.4 11.3 0.00 0.00 0.00 18 1020.1
20260906184015 31 200 3.2 8.0 0.00 0.00 0.00 19 1020.2
20260906183035 32 169 3.2 8.0 0.00 0.00 0.00 19 1020.3
20260906182016 31 11 4.8 11.3 0.00 0.00 0.00 19 1020.5
20260906181015 31 88 1.6 6.4 0.00 0.00 0.00 21 1020.7
20260906180016 31 36 3.2 8.0 0.00 0.00 0.00 22 1020.9
20260906175036 31 46 1.6 4.8 0.00 0.00 0.00 23 1020.9
20260906174016 30 26 1.6 4.8 0.00 0.00 0.00 24 1021.1
20260906173016 29 54 1.6 4.8 0.00 0.00 0.00 26 1021.2
20260906172016 28 71 1.6 8.0 0.00 0.00 0.00 27 1021.3
20260906171016 28 23 3.2 6.4 0.00 0.00 0.00 28 1021.4
20260906170016 27 23 4.8 11.3 0.00 0.00 0.00 29 1021.5
20260906165016 27 30 3.2 9.7 0.00 0.00 0.00 29 1021.6
20260906164017 27 27 3.2 9.7 0.00 0.00 0.00 30 1021.6
20260906163017 27 24 4.8 12.9 0.00 0.00 0.00 30 1021.6
20260906162017 27 26 4.8 11.3 0.00 0.00 0.00 30 1021.6
20260906161037 27 21 4.8 9.7 0.00 0.00 0.00 29 1021.6
20260906160018 26 37 3.2 6.4 0.00 0.00 0.00 30 1021.6
20260906155017 26 15 6.4 14.5 0.00 0.00 0.00 30 1021.6
20260906154038 26 12 8.0 16.1 0.00 0.00 0.00 29 1021.5
20260906153017 26 358 6.4 12.9 0.00 0.00 0.00 29 1021.5
20260906152018 25 360 8.0 14.5 0.00 0.00 0.00 30 1021.5
20260906151015 25 356 8.0 12.9 0.00 0.00 0.00 31 1021.5
20260906150035 24 357 8.0 16.1 0.00 0.00 0.00 31 1021.6
20260906145015 24 5 9.7 17.7 0.00 0.00 0.00 31 1021.6
20260906144015 24 11 11.3 19.3 0.00 0.00 0.00 31 1021.5
20260906143016 24 11 11.3 17.7 0.00 0.00 0.00 31 1021.5
20260906142036 23 4 6.4 12.9 0.00 0.00 0.00 32 1021.4
20260906141016 23 12 1.6 3.2 0.00 0.00 0.00 33 1021.4
20260906140016 22 19 1.6 3.2 0.00 0.00 0.00 33 1021.3
20260906135016 22 4 6.4 9.7 0.00 0.00 0.00 33 1021.2
20260906134036 21 337 4.8 8.0 0.00 0.00 0.00 34 1021.0
20260906133017 20 335 4.8 8.0 0.00 0.00 0.00 35 1021.0
20260906132037 20 11 3.2 6.4 0.00 0.00 0.00 36 1021.0
20260906131017 21 343 3.2 6.4 0.00 0.00 0.00 35 1021.0
20260906130017 21 325 3.2 4.8 0.00 0.00 0.00 35 1020.9
20260906125017 21 323 1.6 4.8 0.00 0.00 0.00 35 1020.8
20260906124017 21 322 3.2 4.8 0.00 0.00 0.00 35 1020.8
20260906123017 21 321 3.2 4.8 0.00 0.00 0.00 34 1020.8
20260906122018 21 326 3.2 6.4 0.00 0.00 0.00 34 1020.8
20260906121018 21 328 4.8 9.7 0.00 0.00 0.00 34 1020.8
20260906120018 21 326 3.2 4.8 0.00 0.00 0.00 34 1020.7
20260906115018 21 358 1.6 4.8 0.00 0.00 0.00 34 1020.7
20260906114018 21 8 1.6 4.8 0.00 0.00 0.00 34 1020.6
20260906113015 21 10 1.6 3.2 0.00 0.00 0.00 35 1020.6
20260906112035 22 316 1.6 4.8 0.00 0.00 0.00 34 1020.7
20260906111015 22 4 1.6 3.2 0.00 0.00 0.00 32 1020.6
20260906110016 22 11 1.6 4.8 0.00 0.00 0.00 33 1020.5
20260906105016 22 356 1.6 3.2 0.00 0.00 0.00 33 1020.5
20260906104016 23 7 3.2 8.0 0.00 0.00 0.00 33 1020.5
20260906103017 23 334 4.8 8.0 0.00 0.00 0.00 33 1020.4
20260906102017 22 332 3.2 6.4 0.00 0.00 0.00 34 1020.4
20260906101017 22 327 0.0 1.6 0.00 0.00 0.00 35 1020.4
20260906100017 23 315 1.6 3.2 0.00 0.00 0.00 34 1020.3
20260906095017 23 308 0.0 1.6 0.00 0.00 0.00 33 1020.3
20260906094017 23 346 1.6 3.2 0.00 0.00 0.00 33 1020.3
20260906093017 23 331 1.6 4.8 0.00 0.00 0.00 33 1020.2
20260906092018 23 350 1.6 4.8 0.00 0.00 0.00 33 1020.1
20260906091018 23 5 3.2 4.8 0.00 0.00 0.00 34 1020.2
20260906090018 23 8 3.2 6.4 0.00 0.00 0.00 33 1020.0
20260906085018 23 333 1.6 4.8 0.00 0.00 0.00 33 1020.0
20260906084015 23 324 1.6 4.8 0.00 0.00 0.00 33 1020.1
20260906083015 23 329 1.6 3.2 0.00 0.00 0.00 33 1020.2
20260906082015 23 317 1.6 3.2 0.00 0.00 0.00 33 1020.2
20260906081056 23 320 1.6 3.2 0.00 0.00 0.00 33 1020.3
20260906080036 23 323 1.6 4.8 0.00 0.00 0.00 33 1020.4
20260906075016 23 288 1.6 3.2 0.00 0.00 0.00 32 1020.5
20260906074035 23 325 1.6 4.8 0.00 0.00 0.00 34 1020.6
20260906073016 23 299 1.6 1.6 0.00 0.00 0.00 34 1020.6
20260906072016 23 306 1.6 3.2 0.00 0.00 0.00 35 1020.6
20260906071016 23 265 1.6 3.2 0.00 0.00 0.00 34 1020.6
20260906070016 23 252 0.0 1.6 0.00 0.00 0.00 34 1020.6
20260906065016 23 260 1.6 4.8 0.00 0.00 0.00 33 1020.5
20260906064036 24 6 0.0 3.2 0.00 0.00 0.00 33 1020.5
20260906063017 23 55 1.6 4.8 0.00 0.00 0.00 34 1020.4
20260906062017 23 156 0.0 1.6 0.00 0.00 0.00 35 1020.2
20260906061017 24 139 0.0 1.6 0.00 0.00 0.00 33 1020.1
20260906060017 25 351 3.2 6.4 0.00 0.00 0.00 32 1020.1
20260906055017 25 335 4.8 8.0 0.00 0.00 0.00 32 1019.9
20260906054017 25 334 6.4 11.3 0.00 0.00 0.00 31 1019.9
20260906053018 25 332 4.8 11.3 0.00 0.00 0.00 31 1019.9
20260906052015 25 335 4.8 9.7 0.00 0.00 0.00 32 1019.9
20260906051035 25 323 4.8 9.7 0.00 0.00 0.00 32 1019.9
20260906050015 25 329 4.8 11.3 0.00 0.00 0.00 31 1019.8
20260906045018 25 331 3.2 9.7 0.00 0.00 0.00 31 1019.8
20260906044035 26 334 3.2 9.7 0.00 0.00 0.00 31 1019.9
20260906043016 26 325 3.2 9.7 0.00 0.00 0.00 31 1019.9
20260906042016 26 332 3.2 8.0 0.00 0.00 0.00 31 1019.8
20260906041016 26 330 4.8 9.7 0.00 0.00 0.00 30 1019.8
20260906040016 26 327 3.2 6.4 0.00 0.00 0.00 30 1019.9
20260906035016 26 328 4.8 9.7 0.00 0.00 0.00 29 1019.9
20260906034016 26 334 3.2 8.0 0.00 0.00 0.00 29 1019.9
20260906033016 26 328 3.2 4.8 0.00 0.00 0.00 29 1019.7
20260906032016 27 333 3.2 6.4 0.00 0.00 0.00 29 1019.6
20260906031017 27 339 3.2 8.0 0.00 0.00 0.00 28 1019.4
20260906030057 27 2 3.2 4.8 0.00 0.00 0.00 28 1019.3
20260906025037 28 333 3.2 6.4 0.00 0.00 0.00 27 1019.2
20260906024017 28 332 3.2 8.0 0.00 0.00 0.00 27 1019.1
20260906023017 28 330 3.2 6.4 0.00 0.00 0.00 27 1019.0
20260906022038 28 331 3.2 4.8 0.00 0.00 0.00 27 1018.9
20260906021017 29 327 1.6 4.8 0.00 0.00 0.00 27 1018.8
20260906020018 30 324 1.6 6.4 0.00 0.00 0.00 27 1018.7
20260906015018 30 337 3.2 6.4 0.00 0.00 0.00 26 1018.7
20260906014038 30 336 3.2 9.7 0.00 0.00 0.00 26 1018.6
20260906013015 30 337 3.2 8.0 0.00 0.00 0.00 26 1018.6
20260906012015 31 340 3.2 9.7 0.00 0.00 0.00 25 1018.6
20260906011015 31 323 3.2 6.4 0.00 0.00 0.00 25 1018.6
20260906010016 31 9 4.8 11.3 0.00 0.00 0.00 25 1018.6
20260906005015 31 12 6.4 12.9 0.00 0.00 0.00 25 1018.6
20260906004016 31 359 4.8 11.3 0.00 0.00 0.00 25 1018.7
20260906003016 31 341 4.8 11.3 0.00 0.00 0.00 25 1018.7
20260906002036 31 347 4.8 9.7 0.00 0.00 0.00 25 1018.6
20260906001016 32 354 4.8 12.9 0.00 0.00 0.00 25 1018.5
20260906000016 32 16 6.4 14.5 0.00 0.00 0.00 25 1018.5
20260905235036 32 11 4.8 9.7 0.00 0.00 0.00 24 1018.5
20260905234016 32 356 6.4 14.5 0.00 0.00 0.00 25 1018.4
20260905233017 32 2 8.0 16.1 0.00 0.00 0.00 25 1018.4